Powrót do katalogu

NOAA 16 DEB

AktywnyPO
NORAD 41140·DEBRIS·🇺🇸 United States

Wystrzelony Sep 21, 2000 z Vandenberg Space Force Base

Loading…

Następne Przeloty (najbliższe 24 godziny)

TLE

ŚwieżeSource: Space-Track

Epoka: Sep 13, 2026, 09:56 UTC

1 41140U 00055BX  26256.41410561  .00025525  00000-0  22294-2 0  9993
2 41140  98.8326 119.3190 0019893 321.1706  38.8082 14.96632536566283

Śledź NOAA 16 DEB w czasie rzeczywistym z AllMySat

Download on the App Store